Champaign, IL

3:09 PM CST on November 12, 2019 (GMT -0600)
Univ Of Illinois-Willard

Weather History for KCMI - May, 2019

Change the Weather History Date:

Friday, May 17, 2019

  Actual Average Record
Temperature  
Mean Temperature 73 °F 64 °F  
Max Temperature 83 °F 76 °F 90 °F (2001)
Min Temperature 63 °F 51 °F 34 °F (2002)
Degree Days  
Heating Degree Days 0 4  
Month to date heating degree days 115 102  
Since 1 July heating degree days 5878 5766  
Cooling Degree Days 8 3  
Month to date cooling degree days 18 29  
Year to date cooling degree days 21 40  
Growing Degree Days 23 (Base 50)    
Moisture  
Dew Point 62 °F    
Average Humidity 71    
Maximum Humidity 87    
Minimum Humidity 55    
Precipitation  
Precipitation 0.00 in 0.15 in 0.74 in (1999)
Month to date precipitation 2.12 2.58  
Year to date precipitation 14.26 13.19  
Sea Level Pressure  
Sea Level Pressure 29.82 in    
Wind  
Wind Speed 8 mph (SW)    
Max Wind Speed 22 mph    
Max Gust Speed 33 mph    
Visibility 10 miles    
Events      
T = Trace of Precipitation, MM = Missing Value Source: NWS Daily Summary

Daily Weather History Graph

Daily Weather History Graph

Search for Another Location

Airport or City:

Astronomy

May. 17, 2019 Rise Set
Actual Time 5:36 AM CDT 8:03 PM CDT
Civil Twilight 5:05 AM CDT 8:34 PM CDT
Nautical Twilight 4:27 AM CDT 9:12 PM CDT
Astronomical Twilight 3:44 AM CDT 9:55 PM CDT
Moon 6:51 PM CDT (5/17) 5:07 AM CDT (5/17)
Length of Visible Light 15h 29m
Length of Day
14h 27m
Waxing Gibbous, 98% of the Moon is Illuminated
May 17
Waxing Gibbous
May 18
Full
May 26
Last Quarter
Jun 3
New
Jun 10
First Quarter

Hourly Weather History & Observations

Time (CDT) Temp. Heat Index Dew Point Humidity Pressure Visibility Wind Dir Wind Speed Gust Speed Precip Events Conditions
12:53 AM 69.1 °F - 61.0 °F 75% 29.75 in 10.0 mi WSW 10.4 mph - N/A   Clear
1:53 AM 72.0 °F - 60.1 °F 66% 29.77 in 10.0 mi WNW 17.3 mph - N/A   Partly Cloudy
2:53 AM 71.1 °F - 60.1 °F 68% 29.78 in 10.0 mi NW 12.7 mph - N/A   Clear
3:53 AM 66.9 °F - 60.1 °F 79% 29.79 in 10.0 mi WNW 6.9 mph - N/A   Mostly Cloudy
4:53 AM 64.9 °F - 60.1 °F 84% 29.79 in 10.0 mi SW 6.9 mph - N/A   Clear
5:53 AM 64.9 °F - 60.1 °F 84% 29.79 in 10.0 mi SSW 10.4 mph - N/A   Clear
6:53 AM 66.9 °F - 60.1 °F 79% 29.81 in 10.0 mi SW 5.8 mph - N/A   Clear
7:53 AM 69.1 °F - 61.0 °F 75% 29.82 in 10.0 mi SSW 9.2 mph - N/A   Clear
8:53 AM 73.9 °F - 62.1 °F 66% 29.83 in 10.0 mi SSW 11.5 mph - N/A   Clear
9:53 AM 77.0 °F - 63.0 °F 62% 29.84 in 10.0 mi WSW 17.3 mph - N/A   Clear
10:53 AM 77.0 °F - 64.0 °F 64% 29.86 in 10.0 mi NW 13.8 mph 26.5 mph N/A   Mostly Cloudy
11:53 AM 78.1 °F - 64.0 °F 62% 29.87 in 10.0 mi NNW 6.9 mph - N/A   Mostly Cloudy
12:53 PM 79.0 °F - 64.9 °F 62% 29.86 in 10.0 mi NNW 10.4 mph - N/A   Mostly Cloudy
1:53 PM 80.1 °F 81.7 °F 64.0 °F 58% 29.86 in 10.0 mi Calm Calm - N/A   Partly Cloudy
2:53 PM 80.1 °F 81.7 °F 64.0 °F 58% 29.86 in 10.0 mi SE 4.6 mph - N/A   Clear
3:53 PM 80.1 °F 81.9 °F 64.9 °F 60% 29.85 in 10.0 mi SW 6.9 mph - N/A   Clear
4:53 PM 80.1 °F 81.9 °F 64.9 °F 60% 29.84 in 10.0 mi SSW 5.8 mph - N/A   Clear
5:53 PM 82.0 °F 83.8 °F 64.9 °F 56% 29.82 in 10.0 mi South 9.2 mph - N/A   Clear
6:53 PM 79.0 °F - 64.0 °F 60% 29.82 in 10.0 mi SSW 6.9 mph - N/A   Clear
7:53 PM 75.9 °F - 64.0 °F 67% 29.82 in 10.0 mi South 4.6 mph - N/A   Clear
8:53 PM 71.1 °F - 62.1 °F 73% 29.82 in 10.0 mi SSE 5.8 mph - N/A   Clear
9:53 PM 66.9 °F - 61.0 °F 81% 29.83 in 10.0 mi SE 3.5 mph - N/A   Clear
10:53 PM 64.9 °F - 60.1 °F 84% 29.85 in 10.0 mi ENE 8.1 mph - N/A   Clear
11:53 PM 64.0 °F - 60.1 °F 87% 29.85 in 9.0 mi ENE 5.8 mph - N/A   Clear